Вернуться в каталог

FENGYUN 1C DEB

АктивенSSO
NORAD 35142·DEBRIS·🇨🇳 China

Запущен May 10, 1999 с Taiyuan Satellite Launch Center

Loading…

Ближайшие Пролёты (ближайшие 24 часа)

TLE

СвежийSource: Space-Track

Эпоха: Sep 14, 2026, 11:22 UTC

1 35142U 99025DLW 26257.47371257  .00000059  00000-0  78375-4 0  9996
2 35142  99.0656 247.6112 0107860 185.0165 327.5777 13.90644441895212

Отслеживайте FENGYUN 1C DEB в реальном времени с AllMySat

Download on the App Store